Track COSMOS 1141 now! 10-day predictions COSMOS 1141 is classified as:
1 11585U 79090A 22181.54479267 .00000018 00000-0 24428-5 0 9997 2 11585 82.9480 186.2473 0028202 227.1778 255.4696 13.76987944145647